Home > Weather > Dharamshala > Past weeks

Flag for India Past Weather in Dharamshala, Himachal Pradesh, India — Yesterday and Last 2 Weeks

Now
84 °F

Fog.


Feels Like: 104 °F
Forecast: 65 / 71 °F
Wind: No wind

Location: Amritsar Airport

Current Time: Jul 31, 2016 at 9:18:57 AM

Latest Report: Jul 31, 2016 at 8:00 AM


Visibility: 1 mi

Pressure: 29.62 "Hg (25.33 "Hg at 1382m altitude)

Humidity: 100%

Dew Point: 84 °F

Location of DharamshalaLocation

Past Weather in Dharamshala — Graph

°F

Dharamshala Temperature Yesterday

Maximum temperature yesterday: 91 °F (at 3:00 PM)
Minimum temperature yesterday: 77 °F (at 8:30 AM)
Average temperature yesterday: 85 °F

High & Low Weather Summary for the Past Weeks

 TemperatureHumidityPressure
High99 °F (Jul 21, 1:00 PM)100% (Jul 16, 7:30 AM)29.74 "Hg (Jul 16, 7:30 AM)
Low73 °F (Jul 17, 5:00 AM)50% (Jul 21, 3:30 PM)29.45 "Hg (Jul 21, 6:00 PM)
Average87 °F89%29.58 "Hg
* Reported Jul 16 7:30 AM — Jul 31 8:00 AM, Dharamshala, Weather by CustomWeather, © 2016

Note: Actual official high and low records may vary slightly from our data, if they occured in-between our weather recording intervals... More about our weather records

Advertising

Dharamshala Weather History for the Previous 24 Hours

Scroll right to see more
 ConditionsComfort  
Time TempWeatherWind HumidityBarometerVisibility
8:00 AM
Sun, Jul 31
84 °FFog.No wind100%29.62 "Hg1 mi
7:30 AM84 °FFog.No wind100%29.62 "Hg1 mi
7:00 AM82 °FFog.No wind100%29.62 "Hg1 mi
6:30 AM81 °FFog.No wind100%29.62 "Hg1 mi
6:00 AM81 °FFog.2 mph100%29.59 "Hg1 mi
5:30 AM81 °FFog.2 mph100%29.59 "Hg1 mi
5:00 AM81 °FFog.2 mph100%29.59 "Hg1 mi
4:30 AM82 °FFog.No wind100%29.59 "Hg1 mi
4:00 AM82 °FFog.2 mph100%29.59 "Hg1 mi
3:00 AM82 °FFog.No wind100%29.59 "Hg1 mi
2:30 AM82 °FFog.2 mph100%29.62 "Hg1 mi
2:00 AM84 °FFog.No wind100%29.59 "Hg1 mi
1:30 AM84 °FFog.No wind100%29.62 "Hg1 mi
1:00 AM84 °FFog.No wind100%29.62 "Hg1 mi
12:30 AM84 °FFog.2 mph100%29.62 "Hg1 mi
12:00 AM84 °FFog.No wind100%29.59 "Hg1 mi
11:30 PM
Sat, Jul 30
84 °FFog.No wind100%29.59 "Hg1 mi
11:00 PM86 °FFog.No wind100%29.59 "Hg1 mi
10:00 PM86 °FFog.No wind100%29.59 "Hg2 mi
9:30 PM86 °FFog.No wind100%29.59 "Hg2 mi
9:00 PM86 °FFog.No wind100%29.59 "Hg2 mi
8:30 PM88 °FFog.No wind100%29.56 "Hg2 mi
8:00 PM88 °FFog.No wind89%29.56 "Hg2 mi
7:30 PM88 °FFog.No wind89%29.56 "Hg2 mi
7:00 PM90 °FFog.No wind75%29.53 "Hg2 mi
6:30 PM90 °FFog.No wind84%29.53 "Hg2 mi
6:00 PM90 °FFog.No wind79%29.53 "Hg2 mi
5:30 PM86 °FFog.No wind100%29.53 "Hg1 mi
4:30 PM90 °FFog.No wind79%29.53 "Hg2 mi
4:00 PM90 °FScattered clouds.2 mph75%29.53 "Hg2 mi
3:30 PM90 °FFog.7 mph75%29.56 "Hg1 mi
3:00 PM91 °FFog.3 mph75%29.56 "Hg1 mi
2:30 PM90 °FFog.8 mph75%29.56 "Hg1 mi
2:00 PM90 °FFog.6 mph79%29.59 "Hg1 mi
11:00 AM84 °FFog.No wind84%29.65 "Hg3 mi
10:30 AM82 °FFog.No wind94%29.65 "Hg3 mi
10:00 AM82 °FFog.2 mph79%29.65 "Hg2 mi
9:30 AM77 °FFog.No wind100%29.62 "Hg1 mi
Weather by CustomWeather, © 2016

See weather overviewHow to use our weather pages